Location: Arbocrest Acres
(39.2134°N, 84.4144°W)
Time: 01:58:59
(UTC+00:00)

ISS - Visible Passes

Search period start: 29 November 2022 00:00
Search period end: 09 December 2022 00:00
Orbit: 411 x 420 km, 51.6° (Epoch: 28 November)

Date Brightness Start Highest point End Pass type
(mag) Time Alt. Az. Time Alt. Az. Time Alt. Az.
29 Nov -1.3 23:05:36 10° N 23:05:51 10° N 23:06:07 10° N visible
30 Nov -1.4 23:52:29 10° NNW 23:53:32 14° N 23:53:32 14° N visible
01 Dec -1.6 23:04:03 10° NNW 23:05:39 13° NNE 23:06:54 11° NE visible
02 Dec -2.3 23:51:13 10° NNW 23:53:15 24° N 23:53:15 24° N visible
03 Dec -2.2 23:02:39 10° NNW 23:05:12 20° NNE 23:06:50 15° ENE visible
04 Dec -1.0 00:38:53 10° WNW 00:39:44 17° WNW 00:39:44 17° WNW visible
04 Dec -4.0 23:50:02 10° NW 23:53:21 70° NE 23:53:30 69° ENE visible
05 Dec -3.3 23:01:17 10° NW 23:04:27 40° NNE 23:07:32 10° ESE visible
06 Dec -1.2 00:38:25 10° W 00:40:29 20° WSW 00:40:29 20° WSW visible
06 Dec -2.3 23:49:07 10° WNW 23:52:13 37° SW 23:54:55 13° SSE visible
07 Dec -3.5 23:00:04 10° NW 23:03:22 72° SW 23:06:40 10° SE visible
08 Dec -0.5 23:49:08 10° W 23:50:45 13° SW 23:52:22 10° SSW visible
